Stations météo

réclame
Mon MeteoGroup
Auch, France (7622): Température de l'air & dewpoint: 10.01.2018 10:00:00 - 16.01.2018 10:00:00 (CET)Auch, France (7622): Température de l'air 5cm: 10.01.2018 10:00:00 - 16.01.2018 10:00:00 (CET)Auch, France (7622): Température de l'air -20cm & Température de l'air -100cm: 10.01.2018 10:00:00 - 16.01.2018 10:00:00 (CET)Auch, France (7622): Vitesse du vent & gusts: 10.01.2018 10:00:00 - 16.01.2018 10:00:00 (CET)Auch, France (7622): Direction du vent: 10.01.2018 10:00:00 - 16.01.2018 10:00:00 (CET)Auch, France (7622): reduced air pressure: 10.01.2018 10:00:00 - 16.01.2018 10:00:00 (CET)Auch, France (7622): visibility: 10.01.2018 10:00:00 - 16.01.2018 10:00:00 (CET)Auch, France (7622): Ensoleillement: 10.01.2018 10:00:00 - 16.01.2018 10:00:00 (CET)Auch, France (7622): Quantités de précipitations: 10.01.2018 10:00:00 - 16.01.2018 10:00:00 (CET)
Date & Time tt [°C] td [°C] tt 5cm [°C] tt -20cm [°C] tt -100cm [°C] ff [km/h] ff [knt] fx [km/h] fx [knt] dd ppp [hPa] vv [km] sd [min] rr [mm]
16.01.2018 10:00:00 11,5 11,3 10,8 8,6 10,5 15 8 46 25 WSW 1021,5 4,5 0 0,4
16.01.2018 09:00:00 11,6 11,1 10,5 8,5 10,5 26 14 52 28 WSW 1021,1 7 0 0,0
16.01.2018 08:00:00 11,3 10,8 10,3 8,5 10,5 19 11 40 22 WSW 1019,7 16 0 0,0
16.01.2018 07:00:00 11,0 10,7 10,2 8,5 10,5 18 10 42 23 SW 1019,1 7 0 0,2
16.01.2018 06:00:00 11,3 9,9 10,4 8,4 10,5 20 11 51 28 WSW 1018,7 10 0 0,0
16.01.2018 05:00:00 11,4 10,1 10,3 8,4 10,5 25 13 49 27 WSW 1018,4 8 0 0,0
16.01.2018 04:00:00 11,3 9,9 10,3 8,3 10,5 21 11 40 21 SW 1018,8 9 0 0,2
16.01.2018 03:00:00 11,5 9,6 10,2 8,3 10,5 17 9 40 21 WSW 1018,8 20 0 0,0
16.01.2018 02:00:00 11,8 8,8 10,1 8,3 10,5 18 10 39 21 WSW 1019,0 20 0 0,0
16.01.2018 01:00:00 11,9 8,0 10,5 8,3 10,5 16 8 36 20 WSW 1019,6 20 0 0,0
16.01.2018 00:00:00 11,1 6,6 10,1 8,2 10,5 18 10 39 21 SW 1019,9 20 0 0,0
15.01.2018 23:00:00 11,3 4,7 10,3 8,2 10,5 16 9 40 21 WSW 1020,1 20 0 0,0
15.01.2018 22:00:00 11,5 2,2 10,7 8,2 10,5 18 10 32 17 WSW 1019,9 20 0 0,0
15.01.2018 21:00:00 11,5 1,4 9,1 8,2 10,5 16 9 29 15 SW 1019,6 20 0 0,0
15.01.2018 20:00:00 9,7 4,5 8,1 8,1 10,5 8 4 16 9 SSW 1019,7 20 0 0,0
15.01.2018 19:00:00 9,5 5,5 8,3 8,1 10,5 10 6 19 11 SSW 1019,6 20 0 0,0
15.01.2018 18:00:00 9,3 6,0 8,5 8,0 10,5 11 6 13 7 S 1020,2 20 0 0,0
15.01.2018 17:00:00 10,5 5,5 9,8 7,9 10,6 5 3 13 7 SSW 1020,7 20 0 0,0
15.01.2018 16:00:00 11,1 5,2 11,2 7,8 10,5 8 4 23 13 WSW 1020,9 20 0 0,0
15.01.2018 15:00:00 11,1 6,0 11,8 7,6 10,5 10 5 - - SW 1020,5 20 12 0,0
15.01.2018 14:00:00 12,0 7,1 11,3 7,6 10,6 - - - - - 1021,6 20 41 0,0
15.01.2018 13:00:00 10,3 7,2 10,4 7,5 10,6 11 6 31 17 WSW 1022,7 20 11 0,0
15.01.2018 12:00:00 9,3 6,2 9,0 7,6 10,6 13 7 27 15 WSW 1023,9 20 0 0,0
15.01.2018 11:00:00 8,5 6,5 6,4 7,6 10,6 10 6 19 10 SW 1024,6 20 20 0,0
15.01.2018 10:00:00 5,7 5,7 4,3 7,7 10,6 10 5 16 9 S 1024,7 20 7 0,0
15.01.2018 09:00:00 4,1 4,1 0,8 7,7 10,6 11 6 15 8 S 1024,2 20 8 0,0
15.01.2018 08:00:00 2,8 2,8 1,2 7,8 10,6 8 4 10 6 S 1023,6 20 0 0,0
15.01.2018 07:00:00 3,2 3,2 0,6 7,9 10,6 9 5 11 6 S 1023,3 20 0 0,0
15.01.2018 06:00:00 3,3 3,3 0,1 7,9 10,6 8 4 10 6 S 1023,1 20 0 0,0
15.01.2018 05:00:00 4,4 4,3 1,2 7,9 10,6 5 3 14 8 S 1022,9 20 0 0,0
15.01.2018 04:00:00 6,2 6,2 5,6 7,9 10,6 11 6 14 8 S 1023,0 20 0 0,0
15.01.2018 03:00:00 6,1 6,1 5,6 7,9 10,6 8 4 10 6 S 1023,0 20 0 0,0
15.01.2018 02:00:00 6,0 6,0 5,5 7,9 10,6 8 4 9 5 S 1022,7 20 0 0,0
15.01.2018 01:00:00 6,1 6,1 5,5 8,0 10,6 4 2 6 4 S 1023,1 20 0 0,0
15.01.2018 00:00:00 6,3 6,3 5,7 8,0 10,6 5 3 10 5 S 1022,9 20 0 0,0
14.01.2018 23:00:00 6,1 6,1 5,5 8,0 10,6 5 3 6 4 S 1022,2 20 0 0,0
14.01.2018 22:00:00 6,1 6,1 4,2 8,0 10,6 3 2 8 4 S 1021,5 18 0 0,0
14.01.2018 21:00:00 6,5 6,5 5,2 7,9 10,6 5 3 8 5 SSW 1020,9 20 0 0,0
14.01.2018 20:00:00 7,0 7,0 6,5 7,9 10,7 5 3 11 6 SSW 1020,0 13 0 0,0
14.01.2018 19:00:00 7,1 7,1 6,6 7,9 10,6 4 2 5 3 S 1019,4 19 0 0,0
14.01.2018 18:00:00 7,2 7,2 6,7 7,8 10,6 0 0 10 6 N 1018,9 20 0 0,2
14.01.2018 17:00:00 7,2 7,2 6,9 7,8 10,7 5 3 8 5 SE 1018,0 15 0 0,2
14.01.2018 16:00:00 7,2 7,2 7,0 7,7 10,7 6 3 9 5 ESE 1017,4 16 0 0,0
14.01.2018 15:00:00 7,0 7,0 6,9 7,6 10,7 3 1 12 6 ENE 1017,1 3,4 0 0,4
14.01.2018 14:00:00 7,1 7,1 7,3 7,6 10,7 11 6 18 10 S 1017,0 11 0 0,0
14.01.2018 13:00:00 6,9 6,9 7,1 7,6 10,7 13 7 19 11 S 1017,4 17 0 0,0
14.01.2018 12:00:00 6,7 6,7 5,7 7,6 10,7 10 6 16 9 S 1017,8 20 0 0,0
14.01.2018 11:00:00 5,6 5,6 5,2 7,6 10,7 10 6 15 8 S 1017,7 13 0 0,0
14.01.2018 10:00:00 5,4 5,4 4,9 7,6 10,7 9 5 11 6 S 1017,2 5 0 0,0
14.01.2018 09:00:00 5,2 5,2 4,7 7,6 10,7 3 1 8 4 S 1016,6 11 0 0,0
14.01.2018 08:00:00 4,9 4,9 4,2 7,6 10,7 2 1 3 2 SSE 1016,0 4,9 0 0,0
14.01.2018 07:00:00 4,7 4,7 4,1 7,7 10,7 0 0 6 4 N 1015,5 8 0 0,0
14.01.2018 06:00:00 4,7 4,7 4,3 7,7 10,7 4 2 10 5 S 1015,3 10 0 0,0
14.01.2018 05:00:00 4,5 4,5 3,4 7,7 10,7 8 4 10 6 S 1015,4 8 0 0,0
14.01.2018 04:00:00 3,9 3,9 3,3 7,8 10,7 0 0 4 2 N 1015,2 6 0 0,0
14.01.2018 03:00:00 3,8 3,8 3,1 7,8 10,7 0 0 7 4 N 1015,1 6 0 0,0
14.01.2018 02:00:00 3,7 3,7 2,4 7,8 10,7 2 1 4 2 SE 1015,3 7 0 0,0
14.01.2018 01:00:00 3,8 3,8 2,4 7,9 10,7 0 0 5 3 N 1015,2 8 0 0,0
14.01.2018 00:00:00 4,1 4,1 2,6 7,9 10,7 3 2 6 4 N 1015,8 9 0 0,0
13.01.2018 23:00:00 4,0 3,9 2,8 8,0 10,7 0 0 6 3 N 1015,9 10 0 0,0
13.01.2018 22:00:00 4,3 3,9 2,8 8,0 10,7 2 1 4 2 WSW 1015,5 13 0 0,0
13.01.2018 21:00:00 4,9 3,9 3,2 8,0 10,7 0 0 2 1 N 1015,5 17 0 0,0
13.01.2018 20:00:00 5,3 3,6 3,2 8,0 10,8 0 0 3 1 N 1015,6 20 0 0,0
13.01.2018 19:00:00 6,4 4,1 4,7 7,9 10,7 2 1 9 5 NE 1015,5 20 0 0,0
13.01.2018 18:00:00 7,0 3,8 5,3 7,9 10,8 2 1 13 7 NNE 1014,9 20 0 0,0
13.01.2018 17:00:00 7,9 3,9 7,7 7,8 10,7 5 3 12 7 E 1014,7 20 10 0,0
13.01.2018 16:00:00 8,5 3,9 8,5 7,7 10,7 6 3 16 9 SE 1015,0 20 11 0,0
13.01.2018 15:00:00 8,0 4,0 8,1 7,7 10,7 6 4 23 12 ESE 1014,5 20 0 0,0
13.01.2018 14:00:00 8,2 4,0 8,6 7,7 10,8 13 7 26 14 ESE 1014,8 20 0 0,0
13.01.2018 13:00:00 7,7 4,1 7,7 7,6 10,7 11 6 26 14 SE 1015,6 20 0 0,0
13.01.2018 12:00:00 6,7 3,3 6,5 7,7 10,8 9 5 25 14 SSE 1016,5 20 0 0,0
13.01.2018 11:00:00 5,3 4,7 3,9 7,7 10,8 8 4 15 8 SE 1017,0 20 11 0,0
13.01.2018 10:00:00 3,2 3,2 2,4 7,8 10,8 4 2 7 4 NE 1017,3 20 0 0,0
13.01.2018 09:00:00 2,3 2,3 1,2 7,8 10,8 0 0 5 3 N 1017,4 19 0 0,0
13.01.2018 08:00:00 1,9 1,9 1,1 7,9 10,8 0 0 11 6 N 1017,7 14 0 0,0
13.01.2018 07:00:00 2,3 2,3 2,2 7,9 10,8 6 3 11 6 ENE 1018,1 10 0 0,0
13.01.2018 06:00:00 2,7 2,7 2,5 8,0 10,8 0 0 9 5 N 1018,9 4,6 0 0,0
13.01.2018 05:00:00 2,9 2,9 2,5 8,0 10,8 6 3 15 8 ENE 1019,3 6 0 0,0
13.01.2018 04:00:00 3,4 3,4 2,9 8,1 10,8 7 4 12 7 ESE 1020,2 12 0 0,0
13.01.2018 03:00:00 3,4 3,4 3,0 8,2 10,8 7 4 14 7 SE 1020,9 11 0 0,0
13.01.2018 02:00:00 3,3 3,3 0,8 8,3 10,8 3 2 14 8 NE 1021,4 3,8 0 0,0
13.01.2018 01:00:00 2,3 2,3 0,0 8,4 10,8 0 0 6 4 N 1022,5 0,1 0 0,0
13.01.2018 00:00:00 1,1 1,1 -1,4 8,5 10,8 0 0 8 4 N 1023,3 0,6 0 0,0
12.01.2018 23:00:00 1,6 1,6 -2,8 8,7 10,8 4 2 8 4 ESE 1024,0 0,7 0 0,0
12.01.2018 22:00:00 1,3 1,3 -2,0 8,7 10,8 0 0 13 7 N 1024,7 7 0 0,0
12.01.2018 21:00:00 2,3 2,0 -1,4 8,8 10,8 3 1 6 3 SSW 1025,1 6 0 0,0
12.01.2018 20:00:00 3,7 2,8 0,7 8,8 10,8 0 0 9 5 N 1025,0 13 0 0,0
12.01.2018 19:00:00 5,6 4,2 2,7 8,8 10,8 2 1 7 4 NNE 1024,9 20 0 0,0
12.01.2018 18:00:00 7,3 4,8 5,1 8,7 10,8 4 2 18 10 NNE 1024,7 20 16 0,0
12.01.2018 17:00:00 9,5 5,1 10,1 8,7 10,8 12 7 16 9 N 1024,3 20 57 0,0
12.01.2018 16:00:00 9,0 4,8 8,1 8,5 10,8 5 3 11 6 N 1024,2 20 25 0,0
12.01.2018 15:00:00 10,5 4,2 13,1 8,4 10,8 6 4 16 8 N 1024,3 20 53 0,0
12.01.2018 14:00:00 10,7 4,4 12,7 8,4 10,8 9 5 14 8 N 1024,4 20 56 0,0
12.01.2018 13:00:00 9,8 5,8 10,5 8,4 10,8 8 5 16 9 W 1025,2 20 37 0,0
12.01.2018 12:00:00 8,3 6,1 9,2 8,4 10,8 6 3 14 8 W 1026,3 20 1 0,0
12.01.2018 11:00:00 8,6 6,9 7,9 8,4 10,8 2 1 4 2 SE 1026,4 18 44 0,0
12.01.2018 10:00:00 6,0 6,0 1,0 8,5 10,8 0 0 6 3 N 1026,2 19 50 0,0
12.01.2018 09:00:00 4,0 3,9 1,2 8,5 10,8 2 1 11 6 SE 1025,9 16 0 0,0
12.01.2018 08:00:00 5,5 5,5 4,8 8,5 10,8 6 3 20 11 W 1025,7 20 0 0,0
12.01.2018 07:00:00 5,6 5,6 5,0 8,5 10,8 5 3 15 8 S 1025,8 20 0 0,0
12.01.2018 06:00:00 5,1 5,1 5,0 8,6 10,9 8 4 18 10 SW 1025,5 19 0 0,0
12.01.2018 05:00:00 5,2 5,2 5,2 8,6 10,9 4 2 9 5 SW 1025,2 18 0 0,0
12.01.2018 04:00:00 5,2 5,1 5,2 8,6 10,8 4 2 18 10 SW 1025,3 10 0 0,0
12.01.2018 03:00:00 5,2 4,8 5,1 8,6 10,9 9 5 17 9 WNW 1025,6 13 0 0,0
12.01.2018 02:00:00 5,4 4,4 5,3 8,6 10,9 3 1 19 10 NNW 1024,9 20 0 0,0
12.01.2018 01:00:00 5,6 4,1 5,5 8,7 10,9 8 4 16 9 WSW 1024,8 20 0 0,0
12.01.2018 00:00:00 5,9 4,2 5,1 8,7 10,9 4 2 9 5 W 1024,9 20 0 0,0
11.01.2018 23:00:00 6,0 4,5 5,7 8,7 10,9 5 3 17 9 W 1024,1 20 0 0,0
11.01.2018 22:00:00 6,2 4,4 5,9 8,7 10,9 4 2 13 7 WSW 1023,7 20 0 0,0
11.01.2018 21:00:00 6,2 4,2 5,9 8,7 10,9 4 2 16 8 SW 1023,0 20 0 0,0
11.01.2018 20:00:00 6,4 4,2 5,5 8,7 10,9 6 3 20 11 WSW 1022,4 20 0 0,0
11.01.2018 19:00:00 6,7 5,0 6,0 8,7 10,9 11 6 20 11 WSW 1021,5 20 0 0,0
11.01.2018 18:00:00 6,8 5,6 6,2 8,7 10,9 7 4 15 8 SW 1020,7 18 0 0,0
11.01.2018 17:00:00 7,4 5,0 7,4 8,6 10,9 10 5 23 12 WSW 1020,1 20 0 0,0
11.01.2018 16:00:00 8,2 4,6 8,4 8,6 10,9 9 5 23 12 W 1019,2 20 0 0,0
11.01.2018 15:00:00 7,7 4,8 7,3 8,5 10,9 9 5 22 12 WSW 1018,7 20 0 0,0
11.01.2018 14:00:00 8,1 4,1 8,1 8,5 10,9 12 7 30 16 WSW 1018,4 20 0 0,0
11.01.2018 13:00:00 7,9 4,1 8,2 8,5 10,9 11 6 42 23 W 1018,5 20 11 0,0
11.01.2018 12:00:00 7,9 3,9 6,7 8,5 10,9 19 10 36 19 WSW 1018,6 20 38 0,0
11.01.2018 11:00:00 6,8 4,3 5,7 8,5 10,9 13 7 27 15 WSW 1018,5 20 8 0,0
11.01.2018 10:00:00 6,1 4,1 5,4 8,6 10,9 10 5 21 11 WSW 1018,0 15 0 0,0
11.01.2018 09:00:00 6,0 3,8 5,1 8,6 10,9 10 5 23 13 SW 1017,2 20 0 0,0
11.01.2018 08:00:00 5,9 4,2 4,7 8,7 10,9 9 5 30 16 SW 1016,8 20 0 0,0
11.01.2018 07:00:00 5,9 4,1 2,3 8,7 10,9 15 8 31 17 WSW 1016,0 20 0 0,0
11.01.2018 06:00:00 4,0 2,7 2,4 8,8 10,9 9 5 17 9 S 1015,4 20 0 0,0
11.01.2018 05:00:00 5,5 3,7 4,5 8,8 10,9 10 6 31 17 SSW 1015,7 20 0 0,4
11.01.2018 04:00:00 6,1 4,3 5,2 8,8 10,9 17 9 33 18 WSW 1016,2 14 0 1,0
11.01.2018 03:00:00 6,9 4,2 5,6 8,9 10,9 13 7 29 16 WSW 1015,9 20 0 0,0
11.01.2018 02:00:00 7,0 4,5 6,2 8,9 10,9 16 9 30 16 SW 1015,1 20 0 0,0
11.01.2018 01:00:00 7,2 5,0 5,8 8,9 10,9 15 8 31 17 SW 1015,0 20 0 0,0
11.01.2018 00:00:00 7,1 5,2 6,1 8,9 10,9 10 5 21 11 SW 1015,0 20 0 0,0
10.01.2018 23:00:00 7,3 5,3 6,2 9,0 10,9 10 5 58 31 SW 1014,8 20 0 0,0
10.01.2018 22:00:00 8,1 6,2 7,1 9,0 10,9 14 7 28 15 WSW 1014,5 17 0 1,0
10.01.2018 21:00:00 8,8 6,6 7,1 9,0 11,0 16 9 32 18 SW 1014,0 9 0 1,0
10.01.2018 20:00:00 7,7 6,0 5,0 9,0 11,0 4 2 9 5 SW 1013,0 20 0 0,0
10.01.2018 19:00:00 6,9 4,9 3,5 9,0 11,0 2 1 4 2 S 1012,4 20 0 0,0
10.01.2018 18:00:00 8,2 4,6 3,9 8,9 11,0 0 0 6 3 N 1011,8 20 0 0,0
10.01.2018 17:00:00 11,8 4,3 7,9 8,8 11,0 4 2 13 7 SSE 1011,7 20 31 0,0
10.01.2018 16:00:00 14,3 3,4 15,0 8,7 11,0 4 2 9 5 S 1011,8 20 60 0,0
10.01.2018 15:00:00 13,7 4,0 13,4 8,6 11,0 7 4 14 8 W 1011,7 20 47 0,0
10.01.2018 14:00:00 13,5 4,6 13,8 8,5 11,0 6 4 18 10 W 1012,2 20 44 0,0
10.01.2018 13:00:00 12,9 5,6 12,9 8,5 11,0 9 5 18 10 SW 1013,4 20 14 0,0
10.01.2018 12:00:00 12,8 5,0 12,6 8,4 11,0 9 5 19 10 WSW 1014,4 20 50 0,0
10.01.2018 11:00:00 10,2 6,5 5,3 8,5 11,0 7 4 13 7 S 1015,2 20 45 0,0
10.01.2018 10:00:00 6,4 5,2 5,5 8,5 11,0 10 5 14 7 S 1015,3 20 0 0,0

tt = Température de l'air
td = dewpoint
tt 5cm = Température de l'air 5cm
tt -20cm = Température de l'air -20cm
tt -100cm = Température de l'air -100cm
ff = Vitesse du vent
fx = gusts
dd = Direction du vent
ppp = reduced air pressure
vv = visibility
sd = Ensoleillement
rr = Quantités de précipitations

stations d'obs. à proximité